sat.trackr.live / text

‹ back to catalog

STARLINK-11109 [DTC]

NORAD 60306 · 2024-133F

PAYLOAD ACTIVE UNKNOWN

§ Identity

Operator
Country
US
Launch date
2024-07-28
Launch site
AFWTR
Launch vehicle
Mass (kg)
RCS (m²)

Purposes: comms

External: N2YO · Heavens-Above · Gunter

§ Orbital elements

Epoch: 2026-09-21T06:33:28.277280Z

Period
91.74 min
Inclination
53.1595°
Eccentricity
0.0001354
Mean motion
15.69700214 rev/d
Perigee alt
358.8 km
Apogee alt
360.7 km
Semi-major
6,737.9 km
B*
-2.2854e-6
RAAN
261.9983°
Arg perigee
86.7363°
Mean anomaly
273.3810°
Rev number
12,445

§ Raw data

STARLINK-11109 [DTC]1 60306U 24133F   26264.27324395 -.00000866  00000+0 -22854-5 0  99902 60306  53.1595 261.9983 0001354  86.7363 273.3810 15.69700214124454

JSON: /api/v1/satellites/60306 · /tle

For live sub-satellite position, see the globe view (requires WebGL).

§ Visibility from observer

Set your observer location to see the next 7 days of passes ≥ 10°. The values pass through the URL so the page stays shareable.

No JS? Fill the form by hand. The geolocation button needs JavaScript.